CFMGP CYHU-CYRI

Flight info

Callsign CFMGP
Flight time 0h 46m
Altitude 25000
Route VILRO FLEUR
Aircraft B350/L-SBGRWY/S

Departure

Time 2026-05-07 13:24
Airport Montréal / Saint-Hubert Metropolitan Airport (CYHU)

Arrival

Time 2026-05-07 14:10
Airport Rivière-du-Loup Airport (CYRI)
Time Latitude Longitude Altitude Speed Heading
2026-05-07 12:48 45.51580 -73.40602 86 ft 0 kts 42°
2026-05-07 13:20 45.51594 -73.40607 94 ft 5 kts 294°
2026-05-07 13:20 45.51596 -73.40651 94 ft 3 kts 263°
2026-05-07 13:20 45.51624 -73.40713 94 ft 14 kts 319°
2026-05-07 13:20 45.51686 -73.40759 95 ft 8 kts 50°
2026-05-07 13:21 45.51735 -73.40686 95 ft 11 kts 45°
2026-05-07 13:21 45.51798 -73.40593 95 ft 15 kts 47°
2026-05-07 13:21 45.51869 -73.40480 94 ft 16 kts 47°
2026-05-07 13:21 45.51918 -73.40438 94 ft 9 kts 353°
2026-05-07 13:22 45.51925 -73.40441 94 ft 0 kts 329°
2026-05-07 13:22 45.51964 -73.40486 93 ft 13 kts 311°
2026-05-07 13:22 45.51960 -73.40522 93 ft 0 kts 229°
2026-05-07 13:23 45.51919 -73.40588 92 ft 40 kts 227°
2026-05-07 13:23 45.51579 -73.41108 144 ft 96 kts 229°
2026-05-07 13:24 45.51051 -73.41924 456 ft 121 kts 227°
2026-05-07 13:24 45.50492 -73.42801 960 ft 128 kts 230°
2026-05-07 13:24 45.49702 -73.43556 1354 ft 150 kts 196°
2026-05-07 13:24 45.48643 -73.43207 1784 ft 172 kts 152°
2026-05-07 13:25 45.47955 -73.41769 2205 ft 185 kts 99°
2026-05-07 13:25 45.48248 -73.40057 2731 ft 179 kts 44°
2026-05-07 13:25 45.49183 -73.38917 3270 ft 177 kts 28°
2026-05-07 13:25 45.50199 -73.37922 3780 ft 177 kts 27°
2026-05-07 13:26 45.51201 -73.36881 4330 ft 180 kts 36°
2026-05-07 13:26 45.52035 -73.35519 4850 ft 186 kts 52°
2026-05-07 13:26 45.52624 -73.33884 5351 ft 189 kts 65°
2026-05-07 13:26 45.53051 -73.32096 5865 ft 191 kts 70°
2026-05-07 13:27 45.53392 -73.30253 6429 ft 192 kts 73°
2026-05-07 13:27 45.53687 -73.28391 6967 ft 193 kts 75°
2026-05-07 13:27 45.53962 -73.26507 7521 ft 195 kts 77°
2026-05-07 13:27 45.54235 -73.24609 8064 ft 197 kts 78°
2026-05-07 13:28 45.54503 -73.22686 8612 ft 198 kts 78°
2026-05-07 13:28 45.54776 -73.20750 9157 ft 200 kts 79°
2026-05-07 13:28 45.55052 -73.18802 9714 ft 201 kts 79°
2026-05-07 13:28 45.55331 -73.16828 10212 ft 204 kts 80°
2026-05-07 13:29 45.55610 -73.14836 10681 ft 206 kts 80°
2026-05-07 13:29 45.55893 -73.12816 11142 ft 208 kts 80°
2026-05-07 13:29 45.55985 -73.12158 11299 ft 209 kts 80°
2026-05-07 13:29 45.56000 -73.12052 11322 ft 209 kts 80°
2026-05-07 13:30 45.56278 -73.10063 11787 ft 213 kts 80°
2026-05-07 13:30 45.56567 -73.07979 12242 ft 216 kts 81°
2026-05-07 13:30 45.56862 -73.05860 12731 ft 219 kts 81°
2026-05-07 13:30 45.57162 -73.03707 13192 ft 223 kts 81°
2026-05-07 13:31 45.57466 -73.01518 13658 ft 226 kts 81°
2026-05-07 13:31 45.57776 -72.99303 14058 ft 229 kts 82°
2026-05-07 13:31 45.58086 -72.97053 14473 ft 232 kts 82°
2026-05-07 13:31 45.58399 -72.94777 14884 ft 235 kts 82°
2026-05-07 13:32 45.58717 -72.92477 15295 ft 238 kts 83°
2026-05-07 13:32 45.59035 -72.90170 15708 ft 241 kts 83°
2026-05-07 13:32 45.59361 -72.87804 16113 ft 244 kts 83°
2026-05-07 13:32 45.59689 -72.85414 16544 ft 247 kts 84°
2026-05-07 13:33 45.60022 -72.82993 16966 ft 250 kts 84°
2026-05-07 13:33 45.60357 -72.80539 17393 ft 253 kts 84°
2026-05-07 13:33 45.60696 -72.78063 17818 ft 256 kts 84°
2026-05-07 13:33 45.61038 -72.75554 18218 ft 259 kts 84°
2026-05-07 13:34 45.61393 -72.73024 18576 ft 262 kts 81°
2026-05-07 13:34 45.63476 -72.68757 19281 ft 269 kts 42°
2026-05-07 13:34 45.64764 -72.66799 19627 ft 272 kts 46°
2026-05-07 13:35 45.66021 -72.64756 19980 ft 274 kts 46°
2026-05-07 13:35 45.67282 -72.62693 20337 ft 276 kts 46°
2026-05-07 13:35 45.68557 -72.60628 20738 ft 279 kts 45°
2026-05-07 13:35 45.69852 -72.58546 21152 ft 281 kts 45°
2026-05-07 13:36 45.71162 -72.56451 21561 ft 284 kts 45°
2026-05-07 13:36 45.72488 -72.54339 21967 ft 286 kts 44°
2026-05-07 13:36 45.73825 -72.52212 22360 ft 289 kts 44°
2026-05-07 13:36 45.75157 -72.50095 22748 ft 291 kts 44°
2026-05-07 13:37 45.76520 -72.47930 23135 ft 293 kts 44°
2026-05-07 13:37 45.77892 -72.45750 23490 ft 296 kts 44°
2026-05-07 13:37 45.79271 -72.43555 23807 ft 297 kts 44°
2026-05-07 13:37 45.80656 -72.41350 24117 ft 299 kts 44°
2026-05-07 13:38 45.82053 -72.39123 24428 ft 300 kts 44°
2026-05-07 13:38 45.83454 -72.36887 24728 ft 302 kts 44°
2026-05-07 13:38 45.84889 -72.34601 24787 ft 315 kts 44°
2026-05-07 13:38 45.86383 -72.32219 24800 ft 327 kts 44°
2026-05-07 13:39 45.87928 -72.29755 24804 ft 337 kts 45°
2026-05-07 13:39 45.89493 -72.27248 24805 ft 345 kts 45°
2026-05-07 13:39 45.91112 -72.24646 24804 ft 352 kts 45°
2026-05-07 13:39 45.92763 -72.21992 24802 ft 358 kts 45°
2026-05-07 13:40 45.94433 -72.19307 24800 ft 362 kts 45°
2026-05-07 13:40 45.96117 -72.16596 24798 ft 366 kts 45°
2026-05-07 13:40 45.97819 -72.13855 24803 ft 369 kts 45°
2026-05-07 13:40 45.99532 -72.11093 24808 ft 371 kts 45°
2026-05-07 13:41 46.01259 -72.08308 24808 ft 373 kts 46°
2026-05-07 13:41 46.02968 -72.05550 24802 ft 375 kts 46°
2026-05-07 13:41 46.04727 -72.02707 24798 ft 376 kts 46°
2026-05-07 13:41 46.06467 -71.99895 24800 ft 376 kts 46°
2026-05-07 13:42 46.08184 -71.97114 24799 ft 377 kts 46°
2026-05-07 13:42 46.09926 -71.94292 24801 ft 377 kts 46°
2026-05-07 13:42 46.11667 -71.91467 24803 ft 377 kts 46°
2026-05-07 13:42 46.13418 -71.88625 24798 ft 377 kts 46°
2026-05-07 13:43 46.15158 -71.85797 24798 ft 377 kts 46°
2026-05-07 13:43 46.16901 -71.82963 24801 ft 378 kts 46°
2026-05-07 13:43 46.18645 -71.80123 24801 ft 378 kts 46°
2026-05-07 13:43 46.20386 -71.77284 24798 ft 378 kts 46°
2026-05-07 13:44 46.22126 -71.74446 24797 ft 378 kts 47°
2026-05-07 13:44 46.23869 -71.71599 24796 ft 378 kts 47°
2026-05-07 13:44 46.25607 -71.68757 24794 ft 377 kts 47°
2026-05-07 13:44 46.27348 -71.65906 24791 ft 377 kts 47°
2026-05-07 13:45 46.29081 -71.63067 24793 ft 377 kts 47°
2026-05-07 13:45 46.30817 -71.60220 24792 ft 377 kts 47°
2026-05-07 13:45 46.32526 -71.57414 24798 ft 376 kts 47°
2026-05-07 13:45 46.34256 -71.54572 24792 ft 376 kts 47°
2026-05-07 13:46 46.35986 -71.51724 24791 ft 376 kts 47°
2026-05-07 13:46 46.37714 -71.48878 24791 ft 376 kts 47°
2026-05-07 13:46 46.39445 -71.46025 24791 ft 376 kts 47°
2026-05-07 13:46 46.41170 -71.43180 24793 ft 376 kts 47°
2026-05-07 13:47 46.42896 -71.40327 24789 ft 376 kts 47°
2026-05-07 13:47 46.44617 -71.37480 24787 ft 375 kts 47°
2026-05-07 13:47 46.46340 -71.34629 24786 ft 375 kts 47°
2026-05-07 13:47 46.48057 -71.31782 24783 ft 376 kts 47°
2026-05-07 13:48 46.49777 -71.28928 24783 ft 376 kts 48°
2026-05-07 13:48 46.51498 -71.26071 24779 ft 375 kts 48°
2026-05-07 13:48 46.53217 -71.23212 24778 ft 375 kts 48°
2026-05-07 13:48 46.54938 -71.20349 24695 ft 378 kts 48°
2026-05-07 13:49 46.56663 -71.17475 24404 ft 386 kts 48°
2026-05-07 13:49 46.58439 -71.14511 24116 ft 389 kts 48°
2026-05-07 13:49 46.60218 -71.11537 23835 ft 389 kts 48°
2026-05-07 13:49 46.61991 -71.08572 23552 ft 389 kts 48°
2026-05-07 13:50 46.63767 -71.05600 23252 ft 388 kts 49°
2026-05-07 13:50 46.65543 -71.02623 22923 ft 388 kts 49°
2026-05-07 13:50 46.67308 -70.99663 22575 ft 388 kts 49°
2026-05-07 13:50 46.69075 -70.96695 22241 ft 387 kts 49°
2026-05-07 13:51 46.70838 -70.93732 21908 ft 387 kts 49°
2026-05-07 13:51 46.72599 -70.90768 21578 ft 386 kts 49°
2026-05-07 13:51 46.74355 -70.87809 21258 ft 386 kts 49°
2026-05-07 13:51 46.76089 -70.84885 20941 ft 385 kts 49°
2026-05-07 13:52 46.77843 -70.81923 20626 ft 385 kts 49°
2026-05-07 13:52 46.79595 -70.78961 20317 ft 385 kts 49°
2026-05-07 13:52 46.81341 -70.76007 20007 ft 385 kts 49°
2026-05-07 13:52 46.83088 -70.73049 19700 ft 385 kts 49°
2026-05-07 13:53 46.84832 -70.70090 19397 ft 384 kts 49°
2026-05-07 13:53 46.86575 -70.67131 19098 ft 384 kts 49°
2026-05-07 13:53 46.88316 -70.64177 18804 ft 384 kts 49°
2026-05-07 13:53 46.90056 -70.61215 18467 ft 384 kts 50°
2026-05-07 13:54 46.91796 -70.58250 18104 ft 384 kts 49°
2026-05-07 13:54 46.93533 -70.55288 17687 ft 384 kts 49°
2026-05-07 13:54 46.95269 -70.52325 17273 ft 383 kts 49°
2026-05-07 13:54 46.96992 -70.49391 16866 ft 376 kts 49°
2026-05-07 13:55 46.98794 -70.46642 16463 ft 370 kts 42°
2026-05-07 13:55 47.00696 -70.44210 16067 ft 365 kts 37°
2026-05-07 13:55 47.02572 -70.41908 15711 ft 362 kts 40°
2026-05-07 13:55 47.04435 -70.39469 15405 ft 356 kts 41°
2026-05-07 13:56 47.06270 -70.37042 15100 ft 352 kts 40°
2026-05-07 13:56 47.08084 -70.34647 14793 ft 349 kts 40°
2026-05-07 13:56 47.09884 -70.32280 14488 ft 346 kts 40°
2026-05-07 13:56 47.11676 -70.29932 14192 ft 344 kts 40°
2026-05-07 13:57 47.13460 -70.27601 13898 ft 342 kts 40°
2026-05-07 13:57 47.15235 -70.25287 13596 ft 340 kts 40°
2026-05-07 13:57 47.16998 -70.22988 13270 ft 338 kts 40°
2026-05-07 13:57 47.18752 -70.20700 12946 ft 335 kts 40°
2026-05-07 13:58 47.20488 -70.18433 12618 ft 333 kts 40°
2026-05-07 13:58 47.22191 -70.16206 12295 ft 330 kts 40°
2026-05-07 13:58 47.23904 -70.13965 11979 ft 327 kts 40°
2026-05-07 13:58 47.25596 -70.11749 11662 ft 325 kts 40°
2026-05-07 13:59 47.27278 -70.09547 11348 ft 322 kts 40°
2026-05-07 13:59 47.28945 -70.07364 11040 ft 319 kts 40°
2026-05-07 13:59 47.30598 -70.05193 10732 ft 317 kts 40°
2026-05-07 13:59 47.32235 -70.03043 10429 ft 314 kts 40°
2026-05-07 14:00 47.33857 -70.00910 10128 ft 311 kts 40°
2026-05-07 14:00 47.35465 -69.98797 9828 ft 308 kts 39°
2026-05-07 14:00 47.37060 -69.96702 9517 ft 305 kts 39°
2026-05-07 14:00 47.38639 -69.94625 9190 ft 303 kts 39°
2026-05-07 14:01 47.40203 -69.92564 8956 ft 298 kts 40°
2026-05-07 14:01 47.41737 -69.90541 8768 ft 293 kts 40°
2026-05-07 14:01 47.43232 -69.88574 8590 ft 290 kts 40°
2026-05-07 14:01 47.44525 -69.86863 8431 ft 288 kts 40°
2026-05-07 14:02 47.46012 -69.84891 8245 ft 286 kts 40°
2026-05-07 14:02 47.47490 -69.82938 8055 ft 284 kts 39°
2026-05-07 14:02 47.48960 -69.80993 7882 ft 283 kts 40°
2026-05-07 14:02 47.50423 -69.79047 7692 ft 282 kts 40°
2026-05-07 14:03 47.51886 -69.77110 7506 ft 281 kts 40°
2026-05-07 14:03 47.53341 -69.75178 7334 ft 280 kts 40°
2026-05-07 14:03 47.54793 -69.73255 7151 ft 280 kts 40°
2026-05-07 14:03 47.56241 -69.71319 6969 ft 279 kts 40°
2026-05-07 14:04 47.57680 -69.69397 6784 ft 278 kts 40°
2026-05-07 14:04 47.59102 -69.67508 6607 ft 278 kts 40°
2026-05-07 14:04 47.60535 -69.65602 6443 ft 277 kts 40°
2026-05-07 14:04 47.61962 -69.63692 6268 ft 276 kts 40°
2026-05-07 14:05 47.63405 -69.61769 6092 ft 275 kts 40°
2026-05-07 14:05 47.64810 -69.59895 5910 ft 275 kts 40°
2026-05-07 14:05 47.66230 -69.57997 5722 ft 274 kts 40°
2026-05-07 14:05 47.67702 -69.56207 5534 ft 272 kts 32°
2026-05-07 14:06 47.69300 -69.54679 5127 ft 277 kts 30°
2026-05-07 14:06 47.70963 -69.53193 4506 ft 280 kts 29°
2026-05-07 14:06 47.72673 -69.51793 3872 ft 281 kts 25°
2026-05-07 14:06 47.74423 -69.50523 3254 ft 275 kts 24°
2026-05-07 14:07 47.76119 -69.49347 2629 ft 264 kts 24°
2026-05-07 14:07 47.77809 -69.48429 2030 ft 254 kts
2026-05-07 14:07 47.79443 -69.48913 1739 ft 231 kts 326°
2026-05-07 14:07 47.80533 -69.50453 1623 ft 203 kts 308°
2026-05-07 14:08 47.81346 -69.51976 1542 ft 169 kts 294°
2026-05-07 14:08 47.81420 -69.53428 1522 ft 124 kts 248°
2026-05-07 14:08 47.80868 -69.54316 1485 ft 119 kts 213°
2026-05-07 14:08 47.80143 -69.54928 1306 ft 123 kts 213°
2026-05-07 14:09 47.79456 -69.55611 1103 ft 115 kts 214°
2026-05-07 14:09 47.78800 -69.56258 914 ft 112 kts 213°
2026-05-07 14:09 47.78146 -69.56872 747 ft 109 kts 214°
2026-05-07 14:09 47.77520 -69.57449 573 ft 103 kts 211°
2026-05-07 14:10 47.76922 -69.57991 432 ft 92 kts 212°
2026-05-07 14:10 47.76615 -69.58271 431 ft 53 kts 211°
2026-05-07 14:10 47.76324 -69.58537 426 ft 32 kts 212°
2026-05-07 14:10 47.76188 -69.58587 428 ft 15 kts 117°
2026-05-07 14:11 47.76151 -69.58497 429 ft 15 kts 124°
2026-05-07 14:11 47.76110 -69.58376 428 ft 12 kts 77°
2026-05-07 14:11 47.76130 -69.58276 434 ft 8 kts 109°
2026-05-07 14:11 47.76113 -69.58262 426 ft 0 kts 252°